Hobart International Airport

Airport
ICAO code: 
YMHB
IATA Code: 
HBA
Summary
ICAO Region: 
APAC
Territory: 
Location: 
Cambridge, Tasmania
Serving: 
Hobart
Elevation: 
13 ft
Coordinates: 
Aerial View: 
42° 50' 13.475" S, 147° 30' 19.547" E
Metar
Observation
YMHB 241600Z AUTO 18005KT 9999 // OVC027 OVC045 17/14 Q1013
Station
Hobart Airport
Date/Time
2022-01-24 16:00:00
Wind direction
180°
Wind speed
05 kts
Lowest cloud amount
overcast
Temperature
17°C
Dew point
14°C
Humidity
82%
QNH
1013 hPa
Weather condition
n/a

Hobart International Airport is an airport located in Cambridge, 17 kilometres east of Hobart, Tasmania.

Climatology

Mild temperate oceanic climate (Köppen climate classification Cfb).

Runways

Designator Length Width Surface Rops
12/30 2251 45 ASP Yes/Yes
Airport map: 
Aerial View: 

Accidents and Serious Incidents at or in the vicinity of YMHB

SKYbrary Partners:

Safety knowledge contributed by: